Weather History for KCSM - December, 2012

Change the Weather History Date:

Friday, December 14, 2012

  Actual Average Record
Temperature  
Mean Temperature 50 °F -  
Max Temperature 55 °F 49 °F 68 °F (2006)
Min Temperature 45 °F 29 °F 15 °F (2000)
Degree Days  
Heating Degree Days 15    
Moisture  
Dew Point 44 °F    
Average Humidity 80    
Maximum Humidity 100    
Minimum Humidity 57    
Precipitation  
Precipitation 0.14 in - - ()
Sea Level Pressure  
Sea Level Pressure 29.82 in    
Wind  
Wind Speed 20 mph (South)    
Max Wind Speed 38 mph    
Max Gust Speed 45 mph    
Visibility 7 miles    
Events Rain , Thunderstorm    
Averages and records for this station are not official NWS values.
T = Trace of Precipitation, MM = Missing Value Source: NWS Daily Summary

Daily Weather History Graph

Daily Weather History Graph

Search for Another Location

Airport or City:

Trip Planner

Search our weather history database for the weather conditions in past years. The results will help you decide how hot, cold, wet, or windy it might be!

Date:

Astronomy

Dec. 14, 2012 Rise Set
Actual Time 7:38 AM CST 5:25 PM CST
Civil Twilight 7:09 AM CST 5:53 PM CST
Nautical Twilight 6:37 AM CST 6:25 PM CST
Astronomical Twilight 6:06 AM CST 6:56 PM CST
Moon 8:46 AM CST (12/14) 7:17 PM CST (12/14)
Length of Visible Light 10h 44m
Length of Day
9h 47m
Waxing Crescent, 3% of the Moon is Illuminated
Dec 14
Waxing Crescent
Dec 19
First Quarter
Dec 28
Full
Jan 4
Last Quarter
Jan 11
New

Hourly Weather History & Observations

Time (CST) Temp. Windchill Dew Point Humidity Pressure Visibility Wind Dir Wind Speed Gust Speed Precip Events Conditions
12:53 AM 46.0 °F 39.9 °F 35.1 °F 66% 30.06 in 10.0 mi South 13.8 mph - N/A   Clear
1:53 AM 45.0 °F 38.5 °F 35.1 °F 68% 30.05 in 10.0 mi South 13.8 mph - N/A   Scattered Clouds
2:00 AM 46.4 °F 40.4 °F 35.6 °F 66% 30.06 in 10.0 mi South 13.8 mph - N/A   Mostly Cloudy
2:23 AM 46.4 °F 39.5 °F 35.6 °F 66% 30.06 in 10.0 mi South 17.3 mph - N/A   Overcast
2:53 AM 46.9 °F - 37.0 °F 68% 30.03 in 10.0 mi South 15.0 mph - N/A   Mostly Cloudy
3:53 AM 48.0 °F - 37.9 °F 68% 30.01 in 10.0 mi South 18.4 mph - N/A   Mostly Cloudy
4:53 AM 50.0 °F - 39.9 °F 68% 30.00 in 10.0 mi South 16.1 mph - N/A   Overcast
5:08 AM 50.0 °F - 39.2 °F 66% 30.01 in 10.0 mi South 18.4 mph - N/A   Overcast
6:53 AM 51.1 °F - 41.0 °F 68% 29.98 in 10.0 mi South 20.7 mph - N/A   Mostly Cloudy
7:53 AM 51.1 °F - 39.0 °F 63% 29.98 in 10.0 mi South 20.7 mph - N/A   Overcast
8:53 AM 51.1 °F - 37.9 °F 61% 29.97 in 10.0 mi South 19.6 mph 27.6 mph N/A   Overcast
9:53 AM 52.0 °F - 37.9 °F 59% 29.97 in 10.0 mi South 21.9 mph 29.9 mph N/A   Overcast
10:53 AM 52.0 °F - 37.0 °F 57% 29.94 in 10.0 mi SSE 20.7 mph - N/A   Overcast
11:53 AM 54.0 °F - 39.9 °F 59% 29.90 in 10.0 mi SSE 25.3 mph 31.1 mph N/A   Overcast
12:53 PM 53.1 °F - 42.1 °F 66% 29.86 in 10.0 mi South 28.8 mph 36.8 mph N/A   Overcast
1:53 PM 54.0 °F - 45.0 °F 72% 29.80 in 10.0 mi SSE 28.8 mph 33.4 mph N/A   Overcast
2:53 PM 55.0 °F - 46.9 °F 74% 29.75 in 10.0 mi SSE 26.5 mph 33.4 mph N/A   Overcast
3:08 PM 55.4 °F - 48.2 °F 77% 29.75 in 10.0 mi SSE 27.6 mph 33.4 mph N/A   Overcast
3:53 PM 54.0 °F - 48.9 °F 83% 29.72 in 10.0 mi SSE 21.9 mph 31.1 mph N/A   Overcast
4:26 PM 55.4 °F - 51.8 °F 88% 29.72 in 2.0 mi SSE 23.0 mph 39.1 mph 0.00 in Rain Light Rain
4:36 PM 53.6 °F - 53.6 °F 100% 29.72 in 1.0 mi SSE 27.6 mph 35.7 mph 0.00 in   Overcast
4:53 PM 54.0 °F - 53.1 °F 97% 29.68 in 1.0 mi SSE 26.5 mph 34.5 mph 0.00 in   Overcast
5:04 PM 53.6 °F - 53.6 °F 100% 29.69 in 1.8 mi SSE 24.2 mph 38.0 mph N/A   Overcast
5:14 PM 53.6 °F - 53.6 °F 100% 29.69 in 2.5 mi SSE 23.0 mph 36.8 mph N/A   Overcast
5:21 PM 53.6 °F - 53.6 °F 100% 29.69 in 3.0 mi SSE 25.3 mph 40.3 mph N/A   Overcast
5:53 PM 53.1 °F - 52.0 °F 96% 29.65 in 3.0 mi SSE 24.2 mph 33.4 mph N/A   Overcast
6:28 PM 53.6 °F - 51.8 °F 94% 29.64 in 1.0 mi SE 29.9 mph 39.1 mph 0.00 in Rain Light Rain
6:43 PM 53.6 °F - 51.8 °F 94% 29.73 in 1.0 mi WSW 38.0 mph 44.9 mph 0.09 in Rain , Thunderstorm Rain
6:50 PM 48.2 °F - 46.4 °F 93% 29.73 in 1.0 mi West 19.6 mph 44.9 mph 0.12 in Rain , Thunderstorm Rain
6:51 PM 48.0 °F - 46.0 °F 93% 29.72 in 1.0 mi West 19.6 mph 44.9 mph 0.12 in Rain , Thunderstorm Rain
6:53 PM 48.2 °F - 46.4 °F 93% 29.73 in 2.5 mi WSW 21.9 mph 35.7 mph 0.00 in Rain , Thunderstorm Light Rain
6:55 PM 48.2 °F - 46.4 °F 93% 29.72 in 6.0 mi West 21.9 mph 29.9 mph 0.00 in Rain Light Rain
7:53 PM 48.9 °F - 46.0 °F 90% 29.68 in 10.0 mi SSW 10.4 mph - 0.02 in   Overcast
8:53 PM 48.0 °F - 45.0 °F 89% 29.68 in 10.0 mi South 16.1 mph - 0.00 in   Mostly Cloudy
9:53 PM 46.9 °F - 44.1 °F 90% 29.68 in 10.0 mi South 19.6 mph 27.6 mph N/A   Clear
10:53 PM 48.0 °F - 43.0 °F 83% 29.67 in 10.0 mi South 26.5 mph 34.5 mph N/A   Clear
11:53 PM 46.9 °F - 39.9 °F 77% 29.65 in 10.0 mi SSW 21.9 mph 29.9 mph N/A   Clear